STARLINK-5023 (53919 NORAD) Tracking and Keplerian Element Data

This shows tracking and keplerian element data for the satellite.

Feedback or suggestion? Click here.




ElementValue
Catalog53919
NameSTARLINK-5023
Epoch Orbit945
Epoch Day325.25001157
Epoch Year2022
RAAN329.4913
Inclination53.2141
Eccentricity0.000418
Argument of Perigee4.5481
Mean Anonmoly101.6022
Mean Motion15.73175191
Decay Rate0.00024556
L11 53919U 22119AK 22325.25001157 .00024556 00000+0 17901-3 0 9999
L22 53919 53.2141 329.4913 0004180 4.5481 101.6022 15.73175191 9451



Live tracking and technical data element details for STARLINK-5023 (NORAD 53919). STARLINK-5023 can be tracked NOW for your location showing map with azimuth and elevation plus other details from your city location.







IsCatalogInMostPopularTable: catalog: 53919, numindb: 1
Update: records affected: 1



GetName: 53919 STARLINK-5023

Hit Count: updated at: Fri, 09 Dec 2022 20:25:16 GMT